SCP
1 3 1 0 0 0 0 0 0 0 0 0 0 0 0 0 0 0 0 0 0 0 0 0 0 0 0 0 0 0 0 0 0 0 0 0 0 0
1 2 2 1 0 0 0 0 0 0 0 0 0 0 0 0 0 0 0 0 0 0 0 0 0 0 0 0 0 0 0 0 0 0 0 0 0 0
2 2 2 1 0 0 0 0 0 0 0 0 0 0 0 0 0 0 0 0 0 0 0 0 0 0 0 0 0 0 0 0 0 0 0 0 0 0
1 1 1 0 1 0 0 0 0 0 0 0 0 0 0 0 0 0 0 0 0 0 0 0 0 0 0 0 0 0 0 0 0 0 0 0 0 0
0 1 0 0 1 0 0 0 0 0 0 0 0 0 0 0 0 0 0 0 0 0 0 0 -0 0 0 0 0 0 0 0 0 0 0 0 0 0
0 0 0 0 0 1 0 0 0 0 0 0 0 0 0 0 0 0 0 0 0 0 0 0 0 0 0 0 0 0 0 0 0 0 0 0 0 0
0 0 0 0 0 0 0 0 0 0 0 0 0 0 0 0 0 0 0 0 0 0 0 0 0 0 0 0 0 0 0 0 0 0 0 0 0 0
0 0 0 0 0 0 0 0 0 1 0 0 0 0 0 0 0 0 0 0 0 0 0 0 0 0 0 0 0 0 0 0 0 0 0 0 0 0
0 0 0 0 0 0 0 0 0 0 0 1 1 1 1 0 0 0 0 0 0 0 0 0 0 0 0 0 0 0 0 0 0 0 0 0 0 0
0 0 0 0 0 0 0 0 0 0 0 0 0 1 1 1 0 0 0 0 0 0 0 0 0 0 0 0 0 0 0 0 0 0 0 0 0 0
0 0 0 0 0 0 0 0 0 0 0 0 0 0 0 0 0 0 0 0 0 0 0 0 0 0 0 0 0 0 0 0 0 0 0 0 0 0
0 0 0 0 0 0 0 0 0 0 0 0 0 0 0 0 0 0 0 0 0 0 0 0 0 0 0 0 0 0 0 0 0 0 0 0 0 0
1 0 0 0 0 0 0 0 0 0 0 0 0 0 0 0 0 0 0 0 0 0 0 0 0 0 0 0 0 0 0 0 0 0 0 0 0 0
0 0 0 0 0 0 0 0 0 0 0 0 0 0 0 0 0 0 0 0 0 0 0 0 0 0 0 0 0 0 0 0 0 0 0 0 0 0
0 0 0 0 0 0 0 0 0 0 0 0 0 0 0 0 0 0 0 0 0 0 0 0 0 0 0 0 0 0 0 0 0 0 0 0 0 0
0 0 0 0 0 0 0 0 0 0 0 0 0 0 0 0 0 0 0 0 0 0 0 0 0 0 0 0 0 0 0 0 0 0 0 0 0 0
0 0 0 0 0 0 0 0 0 0 0 0 0 0 0 0 0 0 0 0 -0 0 0 0 0 0 0 0 0 0 0 0 0 0 0 0 0 0
0 -0 -0 0 0 0 0 0 0 0 0 0 0 0 0 0 0 0 0 0 0 0 0 0 0 0 0 0 0 0 0 0 0 0 0 0 0 0
0 -0 -0 0 0 0 0 0 0 0 0 0 0 0 0 0 0 0 0 0 0 0 0 0 0 0 0 0 0 0 0 0 0 0 0 0 0 0
0 0 -0 0 0 0 0 0 0 0 0 0 0 0 0 0 0 0 0 0 0 0 0 0 0 0 0 0 0 0 0 0 0 0 0 0 0 0
0 0 0 0 0 0 0 0 0 0 0 0 0 0 0 0 0 0 0 0 0 0 0 0 0 0 0 0 0 0 0 0 0 0 0 0 0 0
0 0 0 0 0 0 0 0 0 0 0 0 0 0 0 0 0 0 0 0 0 0 0 0 0 0 0 0 0 0 0 0 0 0 0 0 0 0
0 0 0 0 0 0 0 0 0 0 0 0 0 0 0 0 0 0 0 0 0 0 0 0 0 0 0 0 0 0 0 0 0 0 0 0 0 0
Wind_Speed_500mb
52 43 42 47 33 35 32 29 31 35 32 32 26 27 26 25 25 25 22 24 20 21 29 35 39 44 48 49 51 49 45 38 34 32 33 23 14 6
66 54 48 51 43 40 34 28 28 31 34 20 17 21 27 23 28 23 18 17 19 19 28 34 42 44 47 50 48 42 36 27 25 29 31 26 21 21
67 59 57 53 45 39 34 29 27 26 26 19 10 29 42 32 24 15 13 10 20 25 28 34 40 41 45 46 44 36 27 21 20 23 22 19 19 15
63 58 56 42 47 48 38 35 28 26 24 20 17 25 29 25 22 15 10 12 14 22 32 31 37 38 41 43 39 28 17 20 21 19 21 19 13 11
54 54 48 46 43 41 47 36 35 28 26 18 23 28 20 24 19 17 10 12 8 24 26 33 40 42 40 42 36 20 11 12 14 14 14 9 6 7
64 54 46 52 50 56 50 48 36 33 30 25 21 23 30 25 21 15 15 16 9 14 18 25 33 35 39 44 34 14 6 2 11 8 9 8 6 10
63 65 62 56 51 56 53 56 43 47 32 30 26 27 26 27 24 11 14 13 23 18 13 12 11 23 30 34 32 21 5 9 11 11 11 9 11 10
50 58 63 66 72 64 67 56 49 53 49 40 37 36 34 34 23 21 15 14 15 22 23 9 19 10 15 40 26 20 11 12 16 11 9 14 12 12
64 68 73 65 72 72 66 63 58 54 53 53 51 37 22 37 31 31 22 17 16 17 20 9 14 12 24 32 37 20 17 17 17 16 13 12 12 12
66 73 67 66 69 66 73 77 76 74 88 72 64 61 48 31 38 36 32 29 31 29 23 6 8 12 18 36 37 28 20 23 25 21 16 14 14 12
60 66 69 72 71 70 74 85 92 89 91 74 82 72 62 51 47 36 34 18 20 20 31 23 7 15 14 29 34 32 26 34 27 20 17 16 18 18
62 64 62 74 77 78 79 80 86 80 92 94 90 72 69 64 59 45 35 29 23 26 26 17 9 14 13 14 25 35 32 27 27 23 21 17 16 17
61 69 69 66 65 72 68 64 83 89 84 92 96 87 64 73 69 55 44 42 32 26 34 28 25 18 17 23 22 30 35 27 37 26 27 30 27 23
53 54 57 59 52 54 59 64 71 78 90 90 90 96 98 84 70 59 47 40 42 43 47 45 42 37 25 27 26 24 28 34 39 29 34 30 32 33
55 57 56 47 49 43 50 50 53 68 99 105 102 96 95 88 54 43 33 55 46 50 49 49 52 44 36 25 27 28 27 28 27 31 31 32 38 41
46 58 60 59 49 46 46 45 49 49 73 96 84 79 78 65 46 38 42 67 62 64 56 54 43 38 28 30 26 28 26 27 20 24 27 31 38 42
36 48 49 61 63 57 50 43 38 31 49 48 78 70 47 51 65 78 88 96 95 74 46 34 41 30 33 35 38 26 22 26 23 23 32 34 35 41
39 39 51 57 70 69 56 50 42 39 46 56 63 65 69 73 80 89 83 82 74 67 46 46 43 40 41 37 27 16 19 25 21 27 24 33 31 34
31 32 38 49 49 55 53 56 51 58 66 66 64 63 68 73 68 75 87 78 71 62 53 50 44 43 36 28 17 25 20 21 19 16 18 20 25 21
21 20 23 22 41 47 45 45 45 52 55 55 56 60 59 52 58 62 58 54 52 50 48 44 40 39 36 22 15 11 26 20 17 16 21 23 25 25
6 3 4 5 20 19 24 26 27 29 30 29 30 30 32 33 36 38 40 43 43 40 40 43 35 27 25 24 33 25 22 23 15 12 21 23 24 21
6 3 9 12 2 19 14 14 18 19 19 15 12 13 19 25 27 30 34 38 41 40 33 26 24 23 31 37 27 22 22 27 23 22 17 17 19 13
1 4 1 2 2 13 10 12 11 11 17 21 25 28 30 29 28 29 26 25 25 26 29 24 25 33 31 35 31 26 30 28 25 28 26 20 21 21
Wind_Direction_500mb
224 224 255 246 237 258 254 257 261 266 253 248 237 240 227 240 256 265 268 299 313 324 334 348 351 351 343 341 341 341 342 342 351 5 17 27 50 60
221 213 218 243 232 246 244 242 249 258 272 262 225 238 223 229 260 268 275 291 300 332 339 350 354 348 345 345 345 345 347 356 10 28 38 49 61 100
226 217 224 224 219 235 236 233 235 242 249 256 228 237 247 240 242 254 269 306 308 319 338 351 348 346 346 348 351 353 357 18 22 29 27 44 83 103
221 221 224 225 221 213 225 225 225 234 236 249 233 242 250 238 234 247 255 248 257 305 329 341 343 347 349 355 355 356 23 26 26 37 36 60 69 95
231 231 229 217 219 226 223 227 219 223 239 232 233 234 244 233 240 246 264 289 322 303 314 336 341 345 354 357 1 5 30 16 29 25 13 23 359 329
230 225 228 227 227 236 231 221 216 211 225 228 225 232 226 239 238 238 280 314 248 251 288 325 338 348 340 352 360 354 320 343 327 353 12 9 3 329
219 231 235 242 242 241 234 233 220 226 216 229 224 230 233 228 236 254 227 243 271 277 284 317 316 332 337 330 353 2 340 302 323 321 336 335 332 318
240 234 239 258 250 236 243 230 233 230 228 219 232 231 236 234 232 226 243 250 266 271 297 308 286 319 264 317 345 358 357 322 310 300 304 321 333 334
256 254 267 259 248 237 238 236 228 230 248 237 226 229 237 232 234 255 254 254 268 286 302 290 268 316 278 311 335 330 345 340 320 301 301 314 332 334
257 257 256 252 253 247 236 236 237 237 249 243 238 235 235 229 240 241 241 258 276 286 269 279 263 289 294 299 316 330 308 326 318 309 299 299 307 329
257 254 254 255 254 250 247 250 249 244 239 230 246 239 242 241 251 254 263 286 280 266 261 280 262 275 298 284 295 318 314 320 314 299 305 298 289 295
262 257 257 255 255 255 254 254 247 244 232 224 233 234 243 247 248 248 265 249 262 273 262 241 272 290 302 262 302 309 318 321 318 300 292 295 302 298
263 262 263 263 254 252 254 251 245 244 240 235 230 232 242 250 247 246 248 256 254 260 269 261 268 263 276 279 284 294 300 305 312 295 279 281 283 289
265 264 267 266 261 254 251 253 258 251 230 231 233 225 229 250 242 241 240 256 259 241 247 253 259 271 269 268 278 275 275 276 287 287 307 295 276 268
262 259 259 259 257 251 247 258 271 264 249 239 222 221 213 235 229 235 250 251 268 258 256 256 263 266 272 278 278 270 274 274 278 277 278 284 278 287
274 265 261 252 245 251 254 259 272 262 245 223 216 213 211 204 219 239 253 251 262 270 258 257 253 259 275 293 278 276 286 283 285 259 266 274 275 290
279 281 256 249 249 252 252 254 255 247 238 207 207 205 221 232 235 254 259 255 262 263 239 246 250 261 280 295 278 269 290 281 273 275 267 275 274 279
267 275 286 263 253 256 248 244 243 239 246 241 229 229 237 246 249 252 254 243 246 234 219 225 251 270 282 289 269 253 271 272 274 286 280 289 278 289
275 271 304 275 255 243 236 233 231 240 241 244 245 244 243 250 260 258 245 235 226 232 237 237 247 260 269 278 269 235 247 272 281 288 288 306 285 290
288 269 272 276 247 221 217 222 228 234 240 239 242 241 244 238 226 228 227 226 226 229 237 247 253 257 257 244 250 254 264 266 267 267 270 280 289 262
360 354 140 156 261 161 177 193 201 208 212 215 212 210 211 213 212 217 222 226 227 231 240 249 256 243 236 238 238 251 272 281 297 279 277 272 279 270
215 279 159 119 75 75 82 126 138 154 157 165 181 202 202 199 211 215 219 229 234 241 242 239 239 219 213 225 237 238 239 271 280 294 299 283 265 272
280 159 165 134 83 56 92 136 139 149 166 183 192 206 208 214 218 218 221 229 231 238 236 232 218 216 228 236 247 252 244 240 256 285 292 286 277 282
Wind_Speed_850mb
52 43 42 47 33 35 32 29 31 35 32 32 26 27 26 25 25 25 22 24 20 21 29 35 39 44 48 49 51 49 45 38 34 32 33 23 14 6
66 54 48 51 43 40 34 28 28 31 34 20 17 21 27 23 28 23 18 17 19 19 28 34 42 44 47 50 48 42 36 27 25 29 31 26 21 21
67 59 57 53 45 39 34 29 27 26 26 19 10 29 42 32 24 15 13 10 20 25 28 34 40 41 45 46 44 36 27 21 20 23 22 19 19 15
63 58 56 42 47 48 38 35 28 26 24 20 17 25 29 25 22 15 10 12 14 22 32 31 37 38 41 43 39 28 17 20 21 19 21 19 13 11
54 54 48 46 43 41 47 36 35 28 26 18 23 28 20 24 19 17 10 12 8 24 26 33 40 42 40 42 36 20 11 12 14 14 14 9 6 7
64 54 46 52 50 56 50 48 36 33 30 25 21 23 30 25 21 15 15 16 9 14 18 25 33 35 39 44 34 14 6 2 11 8 9 8 6 10
63 65 62 56 51 56 53 56 43 47 32 30 26 27 26 27 24 11 14 13 23 18 13 12 11 23 30 34 32 21 5 9 11 11 11 9 11 10
50 58 63 66 72 64 67 56 49 53 49 40 37 36 34 34 23 21 15 14 15 22 23 9 19 10 15 40 26 20 11 12 16 11 9 14 12 12
64 68 73 65 72 72 66 63 58 54 53 53 51 37 22 37 31 31 22 17 16 17 20 9 14 12 24 32 37 20 17 17 17 16 13 12 12 12
66 73 67 66 69 66 73 77 76 74 88 72 64 61 48 31 38 36 32 29 31 29 23 6 8 12 18 36 37 28 20 23 25 21 16 14 14 12
60 66 69 72 71 70 74 85 92 89 91 74 82 72 62 51 47 36 34 18 20 20 31 23 7 15 14 29 34 32 26 34 27 20 17 16 18 18
62 64 62 74 77 78 79 80 86 80 92 94 90 72 69 64 59 45 35 29 23 26 26 17 9 14 13 14 25 35 32 27 27 23 21 17 16 17
61 69 69 66 65 72 68 64 83 89 84 92 96 87 64 73 69 55 44 42 32 26 34 28 25 18 17 23 22 30 35 27 37 26 27 30 27 23
53 54 57 59 52 54 59 64 71 78 90 90 90 96 98 84 70 59 47 40 42 43 47 45 42 37 25 27 26 24 28 34 39 29 34 30 32 33
55 57 56 47 49 43 50 50 53 68 99 105 102 96 95 88 54 43 33 55 46 50 49 49 52 44 36 25 27 28 27 28 27 31 31 32 38 41
46 58 60 59 49 46 46 45 49 49 73 96 84 79 78 65 46 38 42 67 62 64 56 54 43 38 28 30 26 28 26 27 20 24 27 31 38 42
36 48 49 61 63 57 50 43 38 31 49 48 78 70 47 51 65 78 88 96 95 74 46 34 41 30 33 35 38 26 22 26 23 23 32 34 35 41
39 39 51 57 70 69 56 50 42 39 46 56 63 65 69 73 80 89 83 82 74 67 46 46 43 40 41 37 27 16 19 25 21 27 24 33 31 34
31 32 38 49 49 55 53 56 51 58 66 66 64 63 68 73 68 75 87 78 71 62 53 50 44 43 36 28 17 25 20 21 19 16 18 20 25 21
21 20 23 22 41 47 45 45 45 52 55 55 56 60 59 52 58 62 58 54 52 50 48 44 40 39 36 22 15 11 26 20 17 16 21 23 25 25
6 3 4 5 20 19 24 26 27 29 30 29 30 30 32 33 36 38 40 43 43 40 40 43 35 27 25 24 33 25 22 23 15 12 21 23 24 21
6 3 9 12 2 19 14 14 18 19 19 15 12 13 19 25 27 30 34 38 41 40 33 26 24 23 31 37 27 22 22 27 23 22 17 17 19 13
1 4 1 2 2 13 10 12 11 11 17 21 25 28 30 29 28 29 26 25 25 26 29 24 25 33 31 35 31 26 30 28 25 28 26 20 21 21
Wind_Direction_850mb
224 224 255 246 237 258 254 257 261 266 253 248 237 240 227 240 256 265 268 299 313 324 334 348 351 351 343 341 341 341 342 342 351 5 17 27 50 60
221 213 218 243 232 246 244 242 249 258 272 262 225 238 223 229 260 268 275 291 300 332 339 350 354 348 345 345 345 345 347 356 10 28 38 49 61 100
226 217 224 224 219 235 236 233 235 242 249 256 228 237 247 240 242 254 269 306 308 319 338 351 348 346 346 348 351 353 357 18 22 29 27 44 83 103
221 221 224 225 221 213 225 225 225 234 236 249 233 242 250 238 234 247 255 248 257 305 329 341 343 347 349 355 355 356 23 26 26 37 36 60 69 95
231 231 229 217 219 226 223 227 219 223 239 232 233 234 244 233 240 246 264 289 322 303 314 336 341 345 354 357 1 5 30 16 29 25 13 23 359 329
230 225 228 227 227 236 231 221 216 211 225 228 225 232 226 239 238 238 280 314 248 251 288 325 338 348 340 352 360 354 320 343 327 353 12 9 3 329
219 231 235 242 242 241 234 233 220 226 216 229 224 230 233 228 236 254 227 243 271 277 284 317 316 332 337 330 353 2 340 302 323 321 336 335 332 318
240 234 239 258 250 236 243 230 233 230 228 219 232 231 236 234 232 226 243 250 266 271 297 308 286 319 264 317 345 358 357 322 310 300 304 321 333 334
256 254 267 259 248 237 238 236 228 230 248 237 226 229 237 232 234 255 254 254 268 286 302 290 268 316 278 311 335 330 345 340 320 301 301 314 332 334
257 257 256 252 253 247 236 236 237 237 249 243 238 235 235 229 240 241 241 258 276 286 269 279 263 289 294 299 316 330 308 326 318 309 299 299 307 329
257 254 254 255 254 250 247 250 249 244 239 230 246 239 242 241 251 254 263 286 280 266 261 280 262 275 298 284 295 318 314 320 314 299 305 298 289 295
262 257 257 255 255 255 254 254 247 244 232 224 233 234 243 247 248 248 265 249 262 273 262 241 272 290 302 262 302 309 318 321 318 300 292 295 302 298
263 262 263 263 254 252 254 251 245 244 240 235 230 232 242 250 247 246 248 256 254 260 269 261 268 263 276 279 284 294 300 305 312 295 279 281 283 289
265 264 267 266 261 254 251 253 258 251 230 231 233 225 229 250 242 241 240 256 259 241 247 253 259 271 269 268 278 275 275 276 287 287 307 295 276 268
262 259 259 259 257 251 247 258 271 264 249 239 222 221 213 235 229 235 250 251 268 258 256 256 263 266 272 278 278 270 274 274 278 277 278 284 278 287
274 265 261 252 245 251 254 259 272 262 245 223 216 213 211 204 219 239 253 251 262 270 258 257 253 259 275 293 278 276 286 283 285 259 266 274 275 290
279 281 256 249 249 252 252 254 255 247 238 207 207 205 221 232 235 254 259 255 262 263 239 246 250 261 280 295 278 269 290 281 273 275 267 275 274 279
267 275 286 263 253 256 248 244 243 239 246 241 229 229 237 246 249 252 254 243 246 234 219 225 251 270 282 289 269 253 271 272 274 286 280 289 278 289
275 271 304 275 255 243 236 233 231 240 241 244 245 244 243 250 260 258 245 235 226 232 237 237 247 260 269 278 269 235 247 272 281 288 288 306 285 290
288 269 272 276 247 221 217 222 228 234 240 239 242 241 244 238 226 228 227 226 226 229 237 247 253 257 257 244 250 254 264 266 267 267 270 280 289 262
360 354 140 156 261 161 177 193 201 208 212 215 212 210 211 213 212 217 222 226 227 231 240 249 256 243 236 238 238 251 272 281 297 279 277 272 279 270
215 279 159 119 75 75 82 126 138 154 157 165 181 202 202 199 211 215 219 229 234 241 242 239 239 219 213 225 237 238 239 271 280 294 299 283 265 272
280 159 165 134 83 56 92 136 139 149 166 183 192 206 208 214 218 218 221 229 231 238 236 232 218 216 228 236 247 252 244 240 256 285 292 286 277 282